Regional Weather Roundup
Issued by NWS

Home | Current Version | Previous Version | Text Only | Print | Product List | Glossary On
Versions: 1 2 3 4 5 6 7 8 9 10 11 12 13 14 15 16 17 18 19 20 21 22 23 24 25 26 27 28
000
ASUS45 KCYS 301210
RWRWY

WYOMING REGIONAL WEATHER ROUNDUP
NATIONAL WEATHER SERVICE CHEYENNE WY
600 AM MDT FRI SEP 30 2016

NOTE:  "FAIR" INDICATES FEW OR NO CLOUDS BELOW 12,000 FEET
WITH NO SIGNIFICANT WEATHER AND/OR OBSTRUCTIONS TO VISIBILITY.

WYZ001-301300-
YELLOWSTONE NATIONAL PARK

CITY           SKY/WX    TMP DP  RH WIND       PRES   REMARKS
LK YELLOWSTONE   N/A     33  33 100 W3        30.35S
6HR MIN TEMP:  33; 6HR MAX TEMP:  42;

W YELLOWSTONE  NOT AVBL

$$
WYZ002>013-054>058-071-098>099-301300-
NORTHERN WYOMING

CITY           SKY/WX    TMP DP  RH WIND       PRES   REMARKS
JACKSON        CLOUDY    45  43  93 CALM      30.31S
CODY           MOCLDY    61  42  49 SW6       30.16S
GREYBULL       FAIR      53  50  89 SE6       30.11S
6HR MIN TEMP:  53; 6HR MAX TEMP:  63; 6HR PCP: TRACE;

WORLAND        FAIR      48  46  93 CALM      30.12S
6HR MIN TEMP:  47; 6HR MAX TEMP:  59;

SHERIDAN       FAIR      49  45  86 S6        30.06S
6HR MIN TEMP:  48; 6HR MAX TEMP:  63;

BUFFALO        FAIR      62  39  42 W5        30.11S
6HR MIN TEMP:  57; 6HR MAX TEMP:  69;

GILLETTE       FAIR      62  49  62 S14       30.08S
6HR MIN TEMP:  58; 6HR MAX TEMP:  63;

HULETT         FAIR      68  45  42 S13       30.11R
NEWCASTLE      FAIR      54  43  66 S10       30.16R

$$
WYZ014>020-022>026-101>103-301300-
CENTRAL WYOMING

CITY           SKY/WX    TMP DP  RH WIND       PRES   REMARKS
BIG PINEY      FAIR      37  35  92 CALM      30.33S
6HR MIN TEMP:  35; 6HR MAX TEMP:  44;

PINEDALE       FAIR      32  32 100 W6        30.34S WCI  26
DUBOIS         FAIR      43  37  81 NW13      30.30R
LANDER         FAIR      46  43  89 NW8       30.21R
6HR MIN TEMP:  46; 6HR MAX TEMP:  57;

RIVERTON       FAIR      48  45  89 SW7       30.22R
6HR MIN TEMP:  48; 6HR MAX TEMP:  56;

CASPER         FAIR      60  49  66 SW14      30.20S
6HR MIN TEMP:  58; 6HR MAX TEMP:  62;

DOUGLAS        FAIR      53  45  74 S7        30.20R
6HR MIN TEMP:  49; 6HR MAX TEMP:  55;


$$
WYZ021-027>030-104>119-301300-
SOUTHERN WYOMING

CITY           SKY/WX    TMP DP  RH WIND       PRES   REMARKS
EVANSTON       FAIR      47  39  74 S7        30.33S
6HR MIN TEMP:  47; 6HR MAX TEMP:  52;

FORT BRIDGER   FAIR      48  40  72 W6        30.35S
ROCK SPRINGS   CLOUDY    51  45  79 SW6       30.32S
6HR MIN TEMP:  50; 6HR MAX TEMP:  54;

DIXON          DRIZZLE   55  47  74 CALM      30.37S
RAWLINS        CLOUDY    53  46  77 SW8       30.32R
6HR MIN TEMP:  52; 6HR MAX TEMP:  55;

SARATOGA       LGT RAIN  50  50 100 SE10      30.36S
LARAMIE        LGT RAIN  50  44  80 SW5       30.33S
6HR MIN TEMP:  49; 6HR MAX TEMP:  52; 6HR PCP: TRACE;

CHEYENNE       CLOUDY    58  45  62 NW8       30.24F
6HR MIN TEMP:  50; 6HR MAX TEMP:  58;

TORRINGTON     FAIR      48  40  73 E7        30.17F
6HR MIN TEMP:  48; 6HR MAX TEMP:  58;

PINE BLUFFS    FAIR      45  39  81 W5        30.23S

$$




USA.gov is the U.S. government's official web portal to all federal, state and local government web resources and services.